Location: Maiden
(35.5760°N, 81.2120°W)
Time: 09:33:05
(UTC-04:00)

Vanguard 2 - Pass Details

Date: 04 August 2021
Orbit: 552 x 2938 km, 32.9° (Epoch: 18 September)

Event Time Altitude Azimuth Distance (km) Brightness Sun altitude
Exits shadow 05:12:06 29° 216° (SW) 1,029 7.6 -15.7°
Maximum altitude 05:13:37 42° 165° (SSE) 793 7.4 -15.5°
Drops below altitude 10° 05:17:42 10° 94° (E) 1,994 10.4 -14.8°
Sets 05:20:22 0° 87° (E) 3,092 11.7 -14.4°
